Weather History for KPVB - November, 2013

Change the Weather History Date:

Friday, November 15, 2013

  Actual Average (KDBQ) Record (KDBQ)
Temperature  
Mean Temperature 43 °F 37 °F  
Max Temperature 54 °F 45 °F 69 °F (1990)
Min Temperature 32 °F 29 °F 6 °F (1959)
Degree Days  
Heating Degree Days 22 28  
Month to date heating degree days 364  
Since 1 July heating degree days 1013  
Cooling Degree Days 0 0  
Month to date cooling degree days 0  
Year to date cooling degree days 643  
Moisture  
Dew Point 31 °F    
Average Humidity 67    
Maximum Humidity 83    
Minimum Humidity 47    
Precipitation  
Precipitation 0.00 in 0.08 in 1.64 in (1960)
Month to date precipitation 1.21  
Year to date precipitation 33.31  
Snow  
Snow 0.00 in 0.10 in - ()
Month to date snowfall 0.6  
Since 1 July snowfall 0.6  
Since 1 September snowfall 0.6  
Snow Depth -    
Sea Level Pressure  
Sea Level Pressure 29.88 in    
Wind  
Wind Speed 8 mph (South)    
Max Wind Speed 13 mph    
Max Gust Speed -    
Visibility 10 miles    
Events      
T = Trace of Precipitation, MM = Missing Value Source: NWS Daily Summary

Daily Weather History Graph

Daily Weather History Graph

Search for Another Location

Airport or City:

Trip Planner

Search our weather history database for the weather conditions in past years. The results will help you decide how hot, cold, wet, or windy it might be!

Date:

Astronomy

Nov. 15, 2013 Rise Set
Actual Time 6:53 AM CST 4:38 PM CST
Civil Twilight 6:23 AM CST 5:09 PM CST
Nautical Twilight 5:49 AM CST 5:43 PM CST
Astronomical Twilight 5:15 AM CST 6:16 PM CST
Moon 3:37 PM CST (11/15) 4:47 AM CST (11/15)
Length of Visible Light 10h 45m
Length of Day
9h 44m
Waxing Gibbous, 96% of the Moon is Illuminated
Nov 15
Waxing Gibbous
Nov 17
Full
Nov 25
Last Quarter
Dec 2
New
Dec 9
First Quarter

Hourly Weather History & Observations

Time (CST) Temp. Windchill Dew Point Humidity Pressure Visibility Wind Dir Wind Speed Gust Speed Precip Events Conditions
12:55 AM 39.7 °F 33.2 °F 30.0 °F 68% 29.88 in 10.0 mi South 10.4 mph - N/A   Scattered Clouds
1:15 AM 38.5 °F 32.7 °F 30.0 °F 72% 29.89 in 10.0 mi South 8.1 mph - N/A   Scattered Clouds
1:35 AM 37.4 °F 31.4 °F 28.9 °F 71% 29.89 in 10.0 mi SSW 8.1 mph - N/A   Scattered Clouds
1:55 AM 36.9 °F 31.4 °F 28.4 °F 71% 29.89 in 10.0 mi SSW 6.9 mph - N/A   Scattered Clouds
2:15 AM 36.1 °F 32.3 °F 28.2 °F 73% 29.89 in 10.0 mi SSW 4.6 mph - N/A   Mostly Cloudy
2:35 AM 35.2 °F 29.5 °F 27.9 °F 74% 29.89 in 10.0 mi South 6.9 mph - N/A   Mostly Cloudy
2:55 AM 34.7 °F 28.8 °F 27.5 °F 75% 29.88 in 10.0 mi South 6.9 mph - N/A   Clear
3:15 AM 35.2 °F 29.5 °F 27.9 °F 74% 29.88 in 10.0 mi South 6.9 mph - N/A   Clear
3:35 AM 33.8 °F 27.7 °F 27.5 °F 78% 29.88 in 10.0 mi South 6.9 mph - N/A   Clear
3:55 AM 34.2 °F 28.2 °F 27.7 °F 77% 29.88 in 10.0 mi South 6.9 mph - N/A   Mostly Cloudy
4:15 AM 33.8 °F 27.7 °F 27.3 °F 77% 29.89 in 10.0 mi South 6.9 mph - N/A   Mostly Cloudy
4:35 AM 33.3 °F 27.1 °F 27.0 °F 78% 29.88 in 10.0 mi South 6.9 mph - N/A   Scattered Clouds
4:55 AM 32.4 °F 26.9 °F 26.6 °F 79% 29.89 in 10.0 mi South 5.8 mph - N/A   Clear
5:15 AM 32.5 °F 28.1 °F 26.6 °F 79% 29.89 in 10.0 mi SSW 4.6 mph - N/A   Clear
5:35 AM 32.4 °F 26.9 °F 27.1 °F 81% 29.89 in 10.0 mi South 5.8 mph - N/A   Clear
5:55 AM 33.1 °F 30.0 °F 26.6 °F 77% 29.89 in 10.0 mi South 3.5 mph - N/A   Clear
6:15 AM 32.0 °F 27.5 °F 26.4 °F 80% 29.89 in 10.0 mi South 4.6 mph - N/A   Clear
6:35 AM 32.0 °F 27.5 °F 26.4 °F 80% 29.90 in 10.0 mi South 4.6 mph - N/A   Clear
6:55 AM 32.0 °F 26.4 °F 26.4 °F 80% 29.90 in 10.0 mi South 5.8 mph - N/A   Clear
7:15 AM 32.0 °F 25.6 °F 26.1 °F 79% 29.91 in 10.0 mi South 6.9 mph - N/A   Clear
7:35 AM 32.4 °F 26.9 °F 26.6 °F 79% 29.91 in 10.0 mi South 5.8 mph - N/A   Clear
7:55 AM 34.5 °F 27.9 °F 28.4 °F 78% 29.92 in 10.0 mi South 8.1 mph - N/A   Clear
8:15 AM 36.1 °F 30.6 °F 30.0 °F 78% 29.93 in 10.0 mi South 6.9 mph - N/A   Clear
8:35 AM 37.8 °F 31.8 °F 30.2 °F 74% 29.93 in 10.0 mi South 8.1 mph - N/A   Clear
8:55 AM 39.0 °F 32.8 °F 30.4 °F 71% 29.93 in 10.0 mi South 9.2 mph - N/A   Clear
9:15 AM 40.8 °F 35.0 °F 30.7 °F 67% 29.92 in 10.0 mi South 9.2 mph - N/A   Clear
9:35 AM 41.4 °F 36.2 °F 30.9 °F 66% 29.94 in 10.0 mi SSW 8.1 mph - N/A   Clear
9:55 AM 42.8 °F 38.6 °F 31.1 °F 63% 29.92 in 10.0 mi SSW 6.9 mph - N/A   Clear
10:15 AM 44.2 °F 41.8 °F 31.5 °F 61% 29.93 in 10.0 mi SSW 4.6 mph - N/A   Clear
10:35 AM 45.7 °F 42.0 °F 32.0 °F 59% 29.94 in 10.0 mi SSW 6.9 mph - N/A   Clear
10:55 AM 47.3 °F - 32.2 °F 56% 29.93 in 10.0 mi SSW 6.9 mph - N/A   Clear
11:15 AM 48.4 °F - 32.4 °F 54% 29.93 in 10.0 mi SSW 6.9 mph - N/A   Clear
11:35 AM 49.1 °F - 32.9 °F 54% 29.92 in 10.0 mi SSW 6.9 mph - N/A   Clear
11:55 AM 50.4 °F - 33.4 °F 52% 29.91 in 10.0 mi South 9.2 mph - N/A   Clear
12:15 PM 51.1 °F - 34.0 °F 52% 29.90 in 10.0 mi SW 8.1 mph - N/A   Clear
12:35 PM 52.2 °F - 34.5 °F 51% 29.89 in 10.0 mi SSW 9.2 mph - N/A   Clear
12:55 PM 52.9 °F - 34.3 °F 49% 29.88 in 10.0 mi SSW 8.1 mph - N/A   Clear
1:15 PM 54.0 °F - 34.9 °F 49% 29.88 in 10.0 mi SSW 10.4 mph - N/A   Clear
1:35 PM 54.0 °F - 34.9 °F 49% 29.88 in 10.0 mi South 9.2 mph - N/A   Clear
1:55 PM 54.7 °F - 35.1 °F 48% 29.87 in 10.0 mi South 9.2 mph - N/A   Clear
2:15 PM 54.3 °F - 35.1 °F 48% 29.87 in 10.0 mi SSW 9.2 mph - N/A   Clear
2:35 PM 54.5 °F - 34.5 °F 47% 29.87 in 10.0 mi South 9.2 mph - N/A   Clear
2:55 PM 54.0 °F - 34.5 °F 48% 29.87 in 10.0 mi South 9.2 mph - N/A   Clear
3:15 PM 53.4 °F - 34.3 °F 48% 29.87 in 10.0 mi South 9.2 mph - N/A   Clear
3:35 PM 51.8 °F - 34.2 °F 51% 29.87 in 10.0 mi SSE 5.8 mph - N/A   Clear
3:55 PM 50.9 °F - 34.3 °F 53% 29.87 in 10.0 mi South 6.9 mph - N/A   Clear
4:15 PM 49.3 °F - 34.0 °F 56% 29.87 in 10.0 mi SSE 6.9 mph - N/A   Clear
4:35 PM 47.3 °F - 33.8 °F 59% 29.87 in 10.0 mi SSE 6.9 mph - N/A   Clear
4:55 PM 46.9 °F - 33.1 °F 59% 29.87 in 10.0 mi SSE 9.2 mph - N/A   Clear
5:15 PM 46.4 °F 42.9 °F 32.5 °F 59% 29.87 in 10.0 mi SSE 6.9 mph - N/A   Clear
5:35 PM 45.5 °F 41.8 °F 32.2 °F 60% 29.87 in 10.0 mi SSE 6.9 mph - N/A   Clear
5:55 PM 43.7 °F 39.7 °F 32.0 °F 63% 29.87 in 10.0 mi SSE 6.9 mph - N/A   Clear
6:15 PM 43.2 °F 39.0 °F 31.8 °F 64% 29.87 in 10.0 mi SSE 6.9 mph - N/A   Clear
6:35 PM 43.7 °F 38.6 °F 32.0 °F 63% 29.86 in 10.0 mi SE 9.2 mph - N/A   Clear
6:55 PM 43.0 °F 37.2 °F 31.8 °F 65% 29.86 in 10.0 mi SSE 10.4 mph - N/A   Clear
7:15 PM 43.5 °F 37.5 °F 31.8 °F 63% 29.86 in 10.0 mi SSE 11.5 mph - N/A   Clear
7:35 PM 41.9 °F 35.9 °F 31.6 °F 67% 29.87 in 10.0 mi SSE 10.4 mph - N/A   Clear
7:55 PM 41.0 °F 35.8 °F 31.6 °F 69% 29.87 in 10.0 mi SSE 8.1 mph - N/A   Clear
8:15 PM 40.6 °F 34.8 °F 32.0 °F 71% 29.87 in 10.0 mi SSE 9.2 mph - N/A   Clear
8:35 PM 39.4 °F 33.8 °F 32.0 °F 75% 29.87 in 10.0 mi SSE 8.1 mph - N/A   Clear
8:55 PM 40.3 °F 33.4 °F 32.4 °F 73% 29.87 in 10.0 mi SSE 11.5 mph - N/A   Clear
9:15 PM 39.2 °F 32.5 °F 32.0 °F 75% 29.87 in 10.0 mi SE 10.4 mph - N/A   Clear
9:35 PM 39.2 °F 33.0 °F 32.0 °F 75% 29.85 in 10.0 mi SE 9.2 mph - N/A   Clear
9:55 PM 38.7 °F 31.8 °F 32.4 °F 78% 29.85 in 10.0 mi SE 10.4 mph - N/A   Clear
10:15 PM 39.0 °F 31.8 °F 32.9 °F 79% 29.85 in 10.0 mi SE 11.5 mph - N/A   Clear
10:35 PM 38.8 °F 31.2 °F 33.1 °F 80% 29.84 in 10.0 mi SE 12.7 mph - N/A   Clear
10:55 PM 38.3 °F 30.9 °F 33.3 °F 82% 29.84 in 10.0 mi SE 11.5 mph - N/A   Clear
11:15 PM 37.9 °F 30.0 °F 33.1 °F 83% 29.84 in 10.0 mi SE 12.7 mph - N/A   Clear
11:35 PM 37.4 °F 30.8 °F 32.5 °F 83% 29.84 in 10.0 mi SE 9.2 mph - N/A   Clear
11:55 PM 37.6 °F 31.0 °F 32.7 °F 83% 29.84 in 10.0 mi SSE 9.2 mph - N/A   Clear